Regional Weather Roundup
Issued by NWS Kansas City/Pleasant Hill, MO

Home | Current Version | Previous Version | Text Only | Print | Product List | Glossary On
Versions: 1 2 3 4 5 6 7 8 9 10 11 12 13 14 15 16 17 18 19 20 21 22 23 24 25 26 27 28 29 30 31 32 33 34 35 36 37 38 39 40 41 42 43 44 45 46 47 48 49 50
000
ASUS43 KEAX 250210
RWREAX

WEATHER ROUNDUP FOR EASTERN KANSAS AND NORTHWEST MISSOURI
NATIONAL WEATHER SERVICE KANSAS CITY/PLEASANT HILL MO
900 PM CDT WED AUG 24 2016

KSZ040-057-103>105-MOZ028-029-037-043-250300-
...KANSAS CITY METROPOLITAN AREA...

CITY           SKY/WX    TMP DP  RH WIND       PRES   REMARKS
K.C. INTL      TSTM      71  68  90 N6        30.03R FOG
K.C. DOWNTOWN  CLOUDY    74  71  91 N10       29.99R
LEES SUMMIT    CLOUDY    72  70  93 NE8       29.98F THUNDER
OLATHE - IXD   TSTM      73  69  87 W12       30.03R FOG
OLATHE - OJC   TSTM      71  68  90 CALM      29.99R
LAWRENCE       LGT RAIN  73  32  22 MISG      30.01R

$$

MOZ001>008-011>017-020>025-030>033-038>040-044>046-053-054-250300-
...NORTHERN AND CENTRAL MISSOURI...

CITY           SKY/WX    TMP DP  RH WIND       PRES   REMARKS
ST. JOSEPH     CLOUDY    70  66  87 N8        30.02R
MOSBY          CLOUDY    75  72  88 SW6       30.01R
WHITEMAN AFB   PTCLDY    81  78  90 SE3       29.95R
CLINTON        CLEAR     81  75  83 CALM      29.98R
SEDALIA        PTCLDY    81  75  82 SE5       29.98R
WARSAW         NOT AVBL
CHILLICOTHE      N/A     78  74  87 CALM      30.00R
KIRKSVILLE     CLOUDY    75  73  93 CALM      30.01R

$$

MOZ041-047>049-056>058-063>065-088>090-097-250300-
...EASTERN AND SOUTHERN MISSOURI...

CITY           SKY/WX    TMP DP  RH WIND       PRES   REMARKS
ST. LOUIS INTL CLOUDY    87  74  64 S5        30.01R HX  95
SPIRIT OF STL  CLOUDY    84  76  76 S8        29.99R HX  93
COLUMBIA       CLEAR     81  75  82 SE6       30.00R
JEFFERSON CITY PTCLDY    80  76  87 SE5       29.98R
ROLLA          CLEAR     81  74  79 S10       30.02R
OSAGE BEACH    CLEAR     82  75  79 S6        30.01R
SPRINGFIELD    CLEAR     82  69  64 S14       30.04R
BRANSON        CLEAR     79  72  78 S7        30.09R
JOPLIN         CLEAR     84  69  60 S14       30.00R
WEST PLAINS    CLEAR     81  70  69 S7        30.10R

$$

IAZ060-094-KSZ022-034>040-054-083-096-NEZ052-066-093-250300-
...KANSAS...SOUTHEAST NEBRASKA AND IOWA...

CITY           SKY/WX    TMP DP  RH WIND       PRES   REMARKS
TOPEKA         LGT RAIN  72  70  93 N6        29.99R
MANHATTAN      CLOUDY    71  64  78 NE10      30.01S
EMPORIA        CLOUDY    73  71  93 N6        30.00R
CHANUTE        PTCLDY    85  68  56 SW13      30.00R
WICHITA        MOCLDY    76  69  79 SE7       30.00R
OMAHA          CLOUDY    69  64  84 N7        30.04R
LINCOLN        CLOUDY    68  63  84 N5        30.07R
FALLS CITY     CLOUDY    70  69  97 NW5       30.02F
LAMONI         CLOUDY    71  66  84 NW13      30.04R
DES MOINES     CLOUDY    74  69  85 W6        30.02R

$$




USA.gov is the U.S. government's official web portal to all federal, state and local government web resources and services.